Regional Weather Roundup
Issued by NWS

Home | Current Version | Previous Version | Text Only | Print | Product List | Glossary On
Versions: 1 2 3 4 5 6 7 8 9 10 11 12 13 14 15 16 17 18 19 20 21 22 23 24 25 26 27 28 29 30 31 32 33 34 35 36 37 38 39 40 41 42 43 44 45 46 47 48 49 50
000
ASUS46 KSTO 260315
RWRCA

NORTHERN AND CENTRAL CA REGIONAL WEATHER ROUNDUP
NATIONAL WEATHER SERVICE SACRAMENTO CA
700 PM PST SAT FEB 25 2017

NOTE: FAIR INDICATES FEW OR NO CLOUDS BELOW 12,000 FEET WITH NO
SIGNIFICANT WEATHER AND/OR OBSTRUCTIONS TO VISIBILITY.

CAZ001-003-260400-
NORTHWEST AREA

CITY           SKY/WX    TMP DP  RH WIND       PRES   REMARKS
CRESCENT CITY  CLEAR     47  39  74 N12       30.13S
UKIAH          CLEAR     45  34  65 NW3       30.04S
$$

CAZ006-505>513-260400-
BAY AREA

CITY           SKY/WX    TMP DP  RH WIND       PRES   REMARKS
SANTA ROSA     CLOUDY    48  41  76 CALM      30.03S
SAN RAFAEL     N/A       51  MM  MM MISG
NAPA           CLOUDY    48  38  68 SE6       30.03F
CONCORD        CLOUDY    51  40  65 CALM      30.04S
OAKLAND CITY   N/A      MM  MM  MM MISG
OAKLAND        CLOUDY    52  40  63 W9        30.03F
SAN FRAN CITY  N/A       50  MM  60 MISG
SAN FRAN ARPT  CLOUDY    50  38  63 W6        30.03F
LIVERMORE      CLOUDY    49  37  63 N7        30.02S
HAYWARD        CLOUDY    51  37  58 NW7       30.03F
REDWOOD CITY   N/A       49  MM  71 MISG
MOFFETT ARPT   CLOUDY    50  40  68 W3        30.04S
SAN JOSE ARPT  CLOUDY    51  38  60 NW7       30.03S
$$
CAZ034-037-514>518-260400-
CENTRAL COAST

CITY           SKY/WX    TMP DP  RH WIND       PRES   REMARKS
WATSONVILLE    CLOUDY    49  42  77 CALM      30.03F
SALINAS        CLOUDY    50  38  63 W6        30.04F
MONTEREY       CLOUDY    50  39  66 SW3       30.04F
SAN LUIS OBISP CLEAR     50  39  66 CALM      30.05S
SANTA MARIA    PTCLDY    45  41  86 S3        30.07R
$$
CAZ015-016-260400-
NORTHERN SACRAMENTO VALLEY

CITY           SKY/WX    TMP DP  RH WIND       PRES   REMARKS
REDDING        CLEAR     44  32  62 NW5       30.04F
RED BLUFF      CLEAR     48  31  51 W5        30.07S
OROVILLE       CLEAR     48  36  63 N5        30.06S
$$
CAZ016>018-260400-
SOUTHERN SACRAMENTO VALLEY

CITY           SKY/WX    TMP DP  RH WIND       PRES   REMARKS
AUBURN         CLEAR     43  34  70 CALM      30.02S
BEALE AFB      CLEAR     47  37  68 NW9       30.03R
LINCOLN        FAIR      45  34  65 NW5       30.04R
MARYSVILLE     CLEAR     45  34  65 NW6       30.05S
SAC INTL ARPT  PTCLDY    45  38  76 NW8       30.04F
MATHER AIRPORT CLEAR     48  36  61 N6        30.04S
DOWNTOWN SAC   N/A       50  MM  MM MISG
SAC EXEC ARPT  CLEAR     47  36  65 NW6       30.04F
VACAVILLE      MOCLDY    46  37  71 NW5       30.05F
TRAVIS AFB     MOCLDY    46  39  78 N7        30.03S
$$
CAZ019>021-260400-
SAN JOAQUIN VALLEY

CITY           SKY/WX    TMP DP  RH WIND       PRES   REMARKS
STOCKTON       PTCLDY    49  39  68 N8        30.03R
MODESTO        MOCLDY    52  37  56 NW8       30.02R
MERCED         MOCLDY    51  34  52 CALM      30.01S
LEMOORE        PTCLDY    41  34  76 S8        30.03S
FRESNO         CLEAR     50  33  52 S3        30.03R
HANFORD        PTCLDY    43  40  89 SE3       30.04R
PORTERVILLE    PTCLDY    44  37  76 CALM      30.05S
BAKERSFIELD    CLEAR     46  36  68 N5        30.03R
$$
CAZ011-012-071-260400-
NORTHERN MOUNTAINS

CITY           SKY/WX    TMP DP  RH WIND       PRES   REMARKS
YREKA          CLEAR     30  25  81 SE5       30.05R WCI  25
MOUNT SHASTA   MOCLDY    34  23  64 CALM      30.01R
ALTURAS        CLEAR     27  17  66 NE3       29.99S
$$
CAZ011-012-071-260400-
SIERRA NEVADA MTNS

CITY           SKY/WX    TMP DP  RH WIND       PRES   REMARKS
BLUE CANYON    CLEAR     29  22  75 NW5       29.96S WCI  24
TRUCKEE        FLURRIES  23  19  86 CALM      29.96R
TAHOE VLY ARPT CLOUDY    27  19  72 S5        29.92S WCI  22
MAMMOTH LAKES  FAIR      24   9  53 W6        29.90R WCI  16
$$



USA.gov is the U.S. government's official web portal to all federal, state and local government web resources and services.